www.pogodaiklimat.ru

Погода и климат >> Архив погоды >> Молдова >> Кишинев


АРХИВ ПОГОДЫ в Кишиневе

Время (UTC), дата Ветер
(напр.,м/с)
 
Видим.   Явления Облачность Т
(С)
Тd
(С)
f
(%)
Тe
(С)
Тes
(С)
Комфортность P
(гПа)
Po
(гПа)
Тmin
(С)
Tmax
(С)
R
(мм)
R24
(мм)
S
(см)
12 12.08 Ю 2 20 км 3/1 600 м
[Cu hum Ci fib]
+32.0 +15.9 38 +35 +46 очень
душно
1016.1 997.1
15 12.08 штиль 0 20 км 3/1 600 м
[Cu hum Ci fib]
+33.2 +15.2 34 +35 +39 душно 1014.5 995.6
18 12.08 В 3 20 км ясно +29.3 +17.8 50 +34 +34 очень
душно
1014.6 995.5 +33.5
21 12.08 Ю 3 20 км ясно +25.2 +16.4 58 +29 +29 душно 1015.2 995.8
00 13.08 ЮЗ 2 20 км ясно +22.8 +14.4 59 +26 +26 жарко 1015.3 995.7
03 13.08 Ю 2 20 км ясно +21.4 +11.4 53 +23 +23 комфорт 1014.9 995.2
06 13.08 Ю 4 50 км ясно +25.9 +11.7 41 +27 +31 жарко 1014.4 995.0 +20.7
09 13.08 Ю 5 50 км ясно +31.3 +12.7 32 +32 +40 жарко 1014.1 995.1
12 13.08 Ю 4 50 км ясно +33.4 +13.0 29 +34 +42 очень
жарко
1012.9 994.0
15 13.08 Ю 3 20 км ясно +33.4 +11.9 27 +33 +36 жарко 1011.5 992.7
18 13.08 Ю 3 20 км 5/3 600 м
[Cb calv Ci fib]
+27.1 +14.2 45 +29 +29 жарко 1012.4 993.2 +34.0
21 13.08 Ю 2 20 км 5/3 600 м
[Cb cap Ac trans]
+23.7 +14.1 55 +26 +26 жарко 1013.6 994.1
00 14.08 ЮВ 1 20 км 4/3 600 м
[Cb calv Ac trans]
+21.7 +14.6 64 +25 +25 комфорт 1013.3 993.7
03 14.08 В 2 20 км ясно +20.5 +14.4 68 +24 +24 комфорт 1012.9 993.2
06 14.08 В 2 20 км ясно +23.5 +13.9 55 +26 +31 жарко 1012.9 993.4 +20.1
09 14.08 Ю 4 20 км 1/0
[Ci fib]
+28.4 +9.7 31 +28 +38 жарко 1010.6 991.5
12 14.08 ЮВ 4 20 км ясно +30.2 +9.2 27 +30 +38 жарко 1008.8 989.8
15 14.08 ЮВ 3 20 км ясно +30.8 +6.0 21 +29 +31 жарко 1007.2 988.2
18 14.08 ЮВ 4 20 км ясно +25.7 +9.5 36 +26 +26 жарко 1007.3 988.0 +31.4
21 14.08 штиль 0 20 км ясно +23.4 +10.1 43 +25 +25 комфорт 1007.7 988.3
00 15.08 С 4 20 км 1/0
[Ci fib]
+19.6 +14.4 72 +21 +21 комфорт 1008.6 989.0
03 15.08 СЗ 6 20 км 10/6 600 м
[Cb calv Ci fib]
+17.7 +13.8 78 +17 +17 прохладно 1009.1 989.3
06 15.08 СЗ 6 20 км 10/8 600 м
[Cb calv Ac trans Ci fib]
+18.6 +13.5 72 +19 +19 по сезону 1010.3 990.5 +17.7
09 15.08 СЗ 7 20 км 10/8 600 м
[Cb calv Ac trans]
+19.4 +12.7 65 +20 +20 прохладно 1010.6 990.9
12 15.08 СЗ 6 20 км 10/6 600 м
[Cb calv Ac trans]
+20.7 +12.9 61 +23 +24 комфорт 1010.8 991.2
15 15.08 СЗ 5
{12}
20 км 9/6 600 м
[Cu med, cong Ac trans]
+18.1 +12.1 68 +18 +18 очень
холодно
1011.4 991.6
18 15.08 С 5 20 км 10/10 600 м
[Cb calv]
+16.8 +11.5 71 +16 +16 очень
холодно
1012.5 992.6 +21.1
21 15.08 СЗ 4 20 км 10/10 600 м
[Cb calv]
+16.1 +11.1 72 +15 +15 холодно 1013.2 993.2
00 16.08 СЗ 4 20 км 10/10 600 м
[Cb calv]
+15.6 +10.8 73 +15 +15 прохладно 1012.9 992.9
03 16.08 СЗ 3 20 км 10/6 600 м
[Sc Ac trans]
+13.6 +10.4 81 +12 +12 очень
холодно
1013.1 992.9
06 16.08 СЗ 4 20 км 8/6 600 м
[Cu med, cong Ac trans]
+16.7 +11.0 69 +16 +17 прохладно 1013.2 993.2 +13.5
09 16.08 СЗ 4 20 км 8/6 600 м
[Cu med, cong Ac lent]
+20.8 +11.7 56 +23 +25 комфорт 1012.8 993.1
12 16.08 СЗ 6 20 км 8/3 600 м
[Cu hum Ac lent]
+24.1 +7.3 34 +24 +26 комфорт 1012.0 992.5
15 16.08 СЗ 5 20 км 5/3 600 м
[Cu hum Ac trans]
+24.0 +5.8 31 +24 +25 комфорт 1011.7 992.2
18 16.08 СЗ 4 20 км 5/4 600 м
[Sc Ac trans]
+20.5 +6.4 40 +22 +22 комфорт 1013.0 993.3 +25.3
21 16.08 С 4 20 км 4/3 600 м
[Sc Ac trans]
+18.6 +6.4 45 +19 +19 прохладно 1013.9 994.0
00 17.08 С 4 20 км 3/0
[Ac trans Ci fib]
+17.1 +7.2 52 +17 +17 по сезону 1014.2 994.2
03 17.08 штиль 0 20 км 3/0
[Ac trans]
+13.9 +7.7 66 +14 +14 холодно 1014.4 994.2
06 17.08 СЗ 4 20 км 1/0
[Ci fib]
+17.6 +8.5 55 +17 +21 прохладно 1014.9 995.0 +13.5
09 17.08 СЗ 5 20 км 8/8 600 м
[Cu med, cong Ci fib]
+22.1 +6.7 37 +23 +24 комфорт 1014.2 994.6
12 17.08 СЗ 5 20 км 9/5 600 м
[Cu med, cong Ac trans]
+24.0 +6.3 32 +24 +26 комфорт 1013.2 993.7
15 17.08 СЗ 4 20 км 8/3 600 м
[Cu hum Ac trans]
+23.5 +5.9 32 +24 +24 комфорт 1013.0 993.5
18 17.08 СЗ 4 20 км 5/0
[Ac trans Ci fib]
+20.6 +7.2 42 +22 +22 комфорт 1013.7 994.0 +25.0
21 17.08 СЗ 3 20 км 3/0
[Ac trans]
+18.5 +7.3 48 +19 +19 прохладно 1014.3 994.4
00 18.08 С 4 20 км ясно +17.9 +7.6 51 +18 +18 по сезону 1014.6 994.7
03 18.08 С 3 20 км ясно +17.0 +8.2 56 +17 +17 прохладно 1014.7 994.7
06 18.08 С 3 20 км ясно +19.7 +9.6 52 +21 +25 комфорт 1015.1 995.3 +16.5
09 18.08 С 4 20 км 8/8 600 м
[Cu med, cong]
+23.9 +7.1 34 +24 +26 комфорт 1015.0 995.5
12 18.08 СЗ 4 20 км 6/6 600 м
[Cu hum]
+26.1 +5.7 27 +25 +29 комфорт 1014.6 995.2
15 18.08 С 1 20 км 1/1 600 м
[Cu hum]
+26.8 +4.6 24 +26 +28 жарко 1014.6 995.2
18 18.08 СЗ 3 20 км 1/0
[Ci fib]
+23.6 +6.4 33 +24 +24 комфорт 1015.6 996.0 +27.7
21 18.08 С 2 20 км ясно +21.6 +7.1 39 +22 +22 комфорт 1016.2 996.5
00 19.08 штиль 0 20 км ясно +18.7 +8.4 51 +19 +19 по сезону 1016.9 997.0
03 19.08 штиль 0 20 км ясно +15.3 +9.4 68 +15 +15 прохладно 1018.1 997.9
06 19.08 штиль 0 20 км ясно +21.1 +11.2 53 +23 +30 комфорт 1018.7 998.9 +14.7

 

Местоположение метеостанции Кишинев (Молдова): широта 47.02 долгота 28.98 высота над уровнем моря 173 м.

В архиве по умолчанию представлена погода в Кишиневе за последнюю неделю. Архивные данные за месяц целиком и за предыдущие месяцы, начиная с января 2011 года, Вы можете получить, выбрав интересующий диапазон дат из раскрывающегося списка и нажав кнопку "Ввод!".


*Определитесь, кто Вы:
робот инопланетянин человек

Внимание! Время в таблицах - всемирное. Для получения местного времени необходимо прибавить поправку, которая равна 2 ч.

Смотрите также архив погоды в соседних городах и на ближайших метеорологических станциях:

Погода в Балцате (Молдова) (5 км)
Погода в Дубоссарах (Молдова) (29 км)
Погода в Кодрах (Молдова) (46 км)
Погода в Тирасполе (Молдова) (49 км)
Погода в Бравичах (Молдова) (57 км)
Погода в Штефан Водэ (Молдова) (67 км)
Погода в Корнестах (Молдова) (76 км)
Погода в Затишье (Одесская область, Украина) (76 км)
Погода в Леове (Молдова) (80 км)
Погода в Заставе (Одесская область, Украина) (81 км)

Пояснения к столбцам:

Ветер - указаны скорость ветра в м/с - средняя за 10 мин, порывы в срок и между сроками (в фигурных скобках) и направление, откуда дует ветер: С - северный, СВ - северо-восточный, В - восточный, ЮВ - юго-восточный, Ю - южный, ЮЗ - юго-западный, З - западный, СЗ - северо-западный.
Видимость - горизонтальная дальность видимости в метрах или километрах. При видимости от 1 до 10 км при отсутствии осадков обычно наблюдается дымка, при ухудшении видимости до 1 км и менее - туман. В сухую погоду видимость может ухудшаться дымом, пылью или мглою.
Явления - указаны атмосферные явления, наблюдавшиеся в срок или в последний час перед сроком; фигурными скобками обозначены явления, наблюдавшиеся между сроками (за 1-3 часа до срока); квадратными скобками обозначены град или гололедные отложения с указанием их диаметра в мм.
Облачность - указаны через наклонную черту общая и нижняя облачность в баллах и высота нижней границы облаков в метрах; квадратными скобками обозначены формы облаков: Ci - перистые, Cs - перисто-слоистые, Cc - перисто-кучевые, Ac - высококучевые, As - высокослоистые, Sc - слоисто-кучевые, Ns - слоисто-дождевые, Cu - кучевые, Cb - кучево-дождевые. Подробнее классификацию облаков см. в Атласе облаков (PDF).
T - Температура воздуха - температура, измеренная на высоте 2 м над землей.
Td - Температура точки росы - температура, при понижении до которой содержащийся в воздухе водяной пар достигнет насыщения.
f - Относительная влажность воздуха - влажноcть воздуха, измеренная на высоте 2 м над землей.
Te - Эффективная температура - температура, которую ощущает одетый по сезону человек в тени. Характеристика душности погоды. При расчете учитывается влияние влажности воздуха и скорости ветра на теплоощущения человека.
Tes - Эффективная температура на солнце - температура, которую ощущает человек, с поправкой на солнечный нагрев. Характеристика знойности погоды. Зависит от высоты солнца над горизонтом, облачности и скорости ветра. Ночью, в пасмурную погоду, а также при ветре 12 м/с и более поправка равна нулю.
P - Атмосферное давление - приведенное к уровню моря атмосферное давление.
Po - Атмосферное давление - измеренное на уровне метеостанции атмосферное давление.
Tmin - Минимальная температура - минимум температуры воздуха на высоте 2 м над землей.
Tmax - Максимальная температура - максимум температуры воздуха на высоте 2 м над землей.
R - Количество осадков - Количество выпавших осадков за период времени, мм. При наведении курсора мыши на число - период времени, за который выпало указанное количество осадков.
R24 - Количество осадков - Количество выпавших осадков за 24 часа, мм.
S - Снежный покров - Высота снежного покрова, см. При наведении курсора мыши на число - состояние снежного покрова и степень покрытия местности в баллах.